Вернуться в каталог

DELTA 1 DEB

АктивенPO
NORAD 21291·DEBRIS·🇺🇸 United States

Запущен Jun 12, 1975 с Vandenberg Space Force Base

Loading…

Ближайшие Пролёты (ближайшие 24 часа)

TLE

СвежийSource: Space-Track

Эпоха: Sep 14, 2026, 08:27 UTC

1 21291U 75052AC  26257.35216416  .00000237  00000-0  24127-3 0  9995
2 21291  99.8978  65.9124 0137201 175.5506 302.7309 13.83426225779976

Отслеживайте DELTA 1 DEB в реальном времени с AllMySat

Download on the App Store